TimeCDT,TemperatureF,Dew PointF,Humidity,Sea Level PressureIn,VisibilityMPH,Wind Direction,Wind SpeedMPH,Gust SpeedMPH,PrecipitationIn,Events,Conditions,WindDirDegrees,DateUTC
12:53 AM,70.0,48.9,47,30.12,10.0,South,12.7,-,N/A,,Clear,190,2013-05-14 05:53:00
1:53 AM,68.0,51.1,55,30.11,10.0,South,11.5,-,N/A,,Clear,190,2013-05-14 06:53:00
2:53 AM,68.0,51.1,55,30.09,10.0,SSW,12.7,-,N/A,,Clear,200,2013-05-14 07:53:00
3:53 AM,66.9,51.1,57,30.09,10.0,SSW,10.4,-,N/A,,Clear,200,2013-05-14 08:53:00
4:53 AM,62.1,52.0,70,30.08,10.0,South,9.2,-,N/A,,Clear,190,2013-05-14 09:53:00
5:53 AM,61.0,53.1,75,30.09,10.0,South,6.9,-,N/A,,Clear,180,2013-05-14 10:53:00
6:53 AM,60.1,54.0,80,30.10,10.0,South,8.1,-,N/A,,Mostly Cloudy,180,2013-05-14 11:53:00
7:53 AM,64.9,55.0,70,30.12,10.0,South,9.2,-,N/A,,Mostly Cloudy,190,2013-05-14 12:53:00
8:53 AM,71.1,55.9,59,30.13,10.0,SSW,12.7,-,N/A,,Mostly Cloudy,210,2013-05-14 13:53:00
9:53 AM,75.0,55.9,51,30.14,10.0,SSW,13.8,-,N/A,,Mostly Cloudy,210,2013-05-14 14:53:00
10:53 AM,79.0,55.9,45,30.14,10.0,SSW,15.0,-,N/A,,Scattered Clouds,200,2013-05-14 15:53:00
11:53 AM,82.0,57.0,42,30.12,10.0,SSW,13.8,21.9,N/A,,Partly Cloudy,200,2013-05-14 16:53:00
12:53 PM,84.9,55.0,36,30.09,10.0,South,18.4,23.0,N/A,,Partly Cloudy,170,2013-05-14 17:53:00
1:53 PM,84.9,55.0,36,30.06,10.0,SSE,17.3,25.3,N/A,,Partly Cloudy,160,2013-05-14 18:53:00
2:53 PM,86.0,52.0,31,30.04,10.0,South,21.9,28.8,N/A,,Partly Cloudy,180,2013-05-14 19:53:00
3:53 PM,87.1,53.1,31,30.02,10.0,South,18.4,25.3,N/A,,Clear,180,2013-05-14 20:53:00
4:53 PM,86.0,50.0,29,29.99,10.0,South,21.9,32.2,N/A,,Clear,170,2013-05-14 21:53:00
5:53 PM,84.9,50.0,30,29.97,10.0,South,20.7,31.1,N/A,,Clear,180,2013-05-14 22:53:00
6:53 PM,82.9,51.1,33,29.96,10.0,South,17.3,28.8,N/A,,Clear,170,2013-05-14 23:53:00
7:53 PM,81.0,51.1,35,29.96,10.0,South,16.1,23.0,N/A,,Clear,170,2013-05-15 00:53:00
8:53 PM,78.1,52.0,40,29.97,10.0,South,9.2,-,N/A,,Partly Cloudy,170,2013-05-15 01:53:00
9:53 PM,77.0,55.9,48,29.98,10.0,SSE,12.7,-,N/A,,Partly Cloudy,160,2013-05-15 02:53:00
10:53 PM,75.0,57.9,55,29.99,10.0,SSE,11.5,-,N/A,,Partly Cloudy,160,2013-05-15 03:53:00
11:53 PM,73.9,59.0,59,30.01,10.0,South,11.5,-,N/A,,Partly Cloudy,170,2013-05-15 04:53:00